EW3154 Weather Reports


Display with metric or nautical units.
time (UTC)temp
F
wind
direction
speed
MPH
gust
MPH
rain 1hr
in
rain 24hr
in
rain mn
in
humidity
%
barometer
mb
20260507144605 70 88 0.0 2.0 0.00 0.24 0.01 44 1010.7
20260507143100 70 87 0.0 0.0 0.00 0.24 0.01 48 1010.7
20260507141610 69 199 1.0 6.0 0.00 0.24 0.01 52 1010.8
20260507140100 69 104 0.0 8.0 0.00 0.24 0.01 53 1010.7
20260507134558 68 64 0.0 10.0 0.00 0.24 0.01 52 1010.8
20260507133049 68 126 0.0 8.0 0.00 0.24 0.01 58 1011.0
20260507131549 68 71 1.0 12.0 0.00 0.24 0.01 59 1011.2
20260507130046 68 47 0.0 5.0 0.00 0.24 0.01 64 1011.3
20260507124544 67 121 0.0 11.0 0.00 0.24 0.01 61 1011.5
20260507123046 67 57 1.0 9.0 0.00 0.24 0.01 60 1011.5
20260507121544 68 107 0.0 7.0 0.00 0.24 0.01 59 1011.8
20260507120041 67 117 0.0 7.0 0.00 0.24 0.01 60 1012.0
20260507114538 66 128 0.0 4.0 0.00 0.25 0.01 65 1012.2
20260507113037 66 88 0.0 9.0 0.00 0.25 0.01 62 1012.3
20260507111537 65 103 0.0 6.0 0.00 0.25 0.01 66 1012.5
20260507110033 64 109 0.0 3.0 0.00 0.25 0.01 68 1012.6
20260507104529 63 123 0.0 8.0 0.00 0.28 0.01 71 1012.7
20260507103028 63 64 0.0 0.0 0.00 0.28 0.01 77 1012.8
20260507101527 64 111 0.0 0.0 0.00 0.28 0.01 73 1012.7
20260507100025 64 97 0.0 0.0 0.00 0.28 0.01 79 1012.7
20260507094526 64 120 0.0 0.0 0.00 0.35 0.01 80 1012.9
20260507093022 63 108 0.0 9.0 0.00 0.35 0.01 79 1012.9
20260507091521 63 80 0.0 6.0 0.00 0.35 0.01 76 1012.9
20260507090019 63 102 0.0 1.0 0.00 0.35 0.01 76 1012.9
20260507084518 63 169 0.0 0.0 0.00 0.40 0.01 80 1013.1
20260507083015 62 118 0.0 1.0 0.00 0.40 0.01 82 1013.0
20260507081513 62 115 0.0 0.0 0.00 0.40 0.01 82 1013.0
20260507080010 61 155 0.0 4.0 0.00 0.40 0.01 89 1013.0
20260507074501 60 138 0.0 0.0 0.00 0.45 0.01 91 1013.0
20260507073058 59 90 0.0 0.0 0.00 0.45 0.01 93 1012.9
20260507071554 58 107 0.0 0.0 0.00 0.45 0.01 93 1013.0
20260507070053 57 96 0.0 0.0 0.00 0.45 0.01 96 1013.0
20260507064604 54 94 0.0 0.0 0.00 0.45 0.01 96 1012.9
20260507063049 54 94 0.0 0.0 0.00 0.45 0.01 100 1012.9
20260507061542 53 94 0.0 0.0 0.00 0.45 0.01 100 1012.8
20260507060040 51 94 0.0 0.0 0.00 0.45 0.01 100 1012.7
20260507054541 50 94 0.0 0.0 0.00 0.45 0.01 100 1012.7
20260507053035 48 94 0.0 0.0 0.00 0.45 0.01 100 1012.4
20260507051532 47 94 0.0 0.0 0.00 0.45 0.01 99 1012.1
20260507050036 47 94 0.0 0.0 0.00 0.45 0.01 99 1012.0
20260507044526 47 94 0.0 0.0 0.00 0.45 0.01 98 1012.0
20260507043023 47 94 0.0 0.0 0.00 0.45 0.01 98 1012.0
20260507041537 48 94 0.0 0.0 0.00 0.45 0.01 98 1011.9
20260507040018 48 94 0.0 0.0 0.00 0.45 0.01 98 1011.7
20260507034517 48 94 0.0 0.0 0.00 0.45 0.01 98 1011.6
20260507033015 49 94 0.0 0.0 0.00 0.45 0.01 98 1011.7
20260507031513 49 94 0.0 0.0 0.00 0.45 0.01 98 1011.7
20260507030010 50 94 0.0 0.0 0.00 0.45 0.01 99 1011.5
20260507024509 50 94 0.0 0.0 0.00 0.45 0.01 99 1011.4
20260507023008 50 94 0.0 0.0 0.00 0.45 0.01 99 1011.4
20260507021507 50 94 0.0 0.0 0.01 0.45 0.01 99 1011.2
20260507020007 50 94 0.0 0.0 0.01 0.45 0.01 98 1011.4
20260507014515 51 94 0.0 0.0 0.01 0.46 0.01 99 1011.3
20260507013015 51 94 0.0 0.0 0.01 0.46 0.01 98 1011.1
20260507011502 51 94 0.0 0.0 0.00 0.45 0.00 99 1011.1
20260507010002 51 94 0.0 0.0 0.00 0.45 0.00 98 1011.2
20260507004600 52 94 0.0 0.0 0.00 0.45 0.00 99 1011.3
20260507003059 52 94 0.0 0.0 0.00 0.45 0.00 99 1011.3
20260507001620 52 94 0.0 0.0 0.00 0.45 0.00 99 1011.4
20260507000100 52 94 0.0 0.0 0.00 0.45 0.00 99 1011.4
20260506234557 52 94 0.0 0.0 0.00 0.45 0.00 99 1011.4
20260506233102 52 94 0.0 0.0 0.00 0.45 0.00 98 1011.4
20260506231556 52 94 0.0 0.0 0.00 0.45 0.00 98 1011.5
20260506230054 52 94 0.0 0.0 0.00 0.45 0.00 98 1011.5
20260506224553 52 94 0.0 0.0 0.00 0.46 0.00 98 1011.4
20260506223105 52 94 0.0 0.0 0.00 0.46 0.00 98 1011.3
20260506221550 52 94 0.0 0.0 0.00 0.46 0.00 98 1011.2
20260506220049 53 94 0.0 0.0 0.00 0.46 0.00 98 1011.1
20260506214547 53 94 0.0 0.0 0.00 0.46 0.46 98 1011.1
20260506213047 53 94 0.0 0.0 0.00 0.46 0.46 98 1011.1
20260506211547 53 94 0.0 0.0 0.00 0.46 0.46 98 1011.3
20260506210047 54 94 0.0 0.0 0.00 0.46 0.46 98 1011.3
20260506204546 54 94 0.0 0.0 0.00 0.46 0.46 98 1011.2
20260506203047 54 94 0.0 0.0 0.03 0.46 0.46 97 1011.0
20260506201545 54 94 0.0 0.0 0.03 0.46 0.46 97 1010.9
20260506200117 54 15 0.0 0.0 0.03 0.46 0.46 98 1010.8
20260506194544 54 15 0.0 0.0 0.03 0.46 0.46 98 1010.7
20260506193046 54 15 0.0 0.0 0.00 0.43 0.43 97 1010.4
20260506191546 55 15 0.0 0.0 0.08 0.43 0.43 97 1010.5
20260506190045 55 15 0.0 0.0 0.10 0.43 0.43 97 1010.4
20260506184543 55 91 0.0 0.0 0.13 0.43 0.43 97 1010.2
20260506183042 55 91 0.0 0.0 0.13 0.43 0.43 97 1010.0
20260506181543 55 64 0.0 0.0 0.05 0.35 0.35 97 1009.6
20260506180049 55 70 0.0 0.0 0.02 0.32 0.31 97 1009.6
20260506174540 55 70 0.0 0.0 0.00 0.31 0.30 96 1009.6
20260506173039 55 166 0.0 0.0 0.00 0.31 0.30 97 1009.6
20260506171549 56 103 0.0 0.0 0.00 0.31 0.30 97 1009.6
20260506170038 56 103 0.0 0.0 0.01 0.31 0.30 97 1009.8
20260506164538 56 134 0.0 0.0 0.02 0.31 0.30 97 1009.9
20260506163046 56 109 0.0 0.0 0.02 0.31 0.30 97 1009.9
20260506161547 56 82 0.0 0.0 0.02 0.31 0.30 96 1010.0
20260506160033 56 83 0.0 0.0 0.02 0.30 0.28 96 1010.2
20260506154531 56 76 0.0 1.0 0.06 0.28 0.28 96 1010.2
20260506153031 55 97 0.0 0.0 0.06 0.28 0.28 97 1010.5
20260506151530 55 40 0.0 0.0 0.06 0.28 0.28 97 1010.6
20260506150033 55 141 0.0 0.0 0.04 0.28 0.27 97 1010.6